EHI
6 6 5 3 2 2 5 8 9 8 6 4 1 1 2 2 4 6 7 11 13 13 13 13 12 11 11 11 10 9 6 3 2 3 3 1 0 0 0 0 0 0 0
6 5 5 4 3 3 6 6 6 5 6 4 3 2 2 3 4 6 8 11 13 14 15 16 15 14 13 13 13 13 10 7 6 5 4 2 1 1 0 0 0 0 0
6 6 5 5 5 5 6 5 3 3 4 4 4 3 3 3 4 6 10 13 13 14 17 19 19 16 14 14 15 16 16 14 11 8 6 3 2 1 0 0 0 0 0
7 6 6 7 7 6 6 4 3 2 3 3 2 3 4 4 4 5 10 13 11 10 13 19 21 18 15 16 16 17 17 16 14 11 8 5 3 2 1 0 0 0 0
7 7 6 7 6 5 5 4 3 3 3 1 0 2 5 7 7 6 7 9 9 8 10 14 17 16 16 18 19 18 17 16 14 12 10 7 5 3 2 0 0 0 0
9 7 6 6 5 5 6 5 5 6 5 2 0 2 4 8 10 9 8 8 8 8 9 10 10 10 12 18 21 21 19 16 12 10 9 8 6 4 1 0 0 0 0
10 8 6 7 6 8 10 9 8 8 7 4 2 3 4 7 8 9 9 10 10 9 8 7 7 8 10 14 18 20 19 16 11 8 7 7 5 3 1 1 0 0 0
11 10 10 10 10 12 15 15 13 11 8 6 5 5 6 7 7 6 8 12 14 12 8 5 7 10 11 11 12 14 16 14 9 7 6 5 4 3 3 2 1 1 1
15 13 14 15 14 16 18 18 16 12 8 7 7 6 7 7 6 4 4 9 15 14 8 5 8 11 13 13 12 11 12 10 7 6 6 4 4 5 5 4 3 2 2
18 16 16 17 17 17 18 18 15 12 10 9 8 7 6 6 5 4 2 5 10 12 9 8 10 12 13 14 12 9 8 6 4 3 5 5 4 5 6 5 4 3 3
20 17 16 18 18 16 17 18 17 14 12 12 10 7 6 7 7 5 2 3 5 8 10 12 13 14 14 13 11 7 4 3 1 1 3 4 4 4 6 6 4 3 3
21 19 17 19 19 17 18 21 22 19 16 13 11 8 7 8 8 6 4 3 4 5 9 13 15 16 13 11 9 6 3 1 0 1 2 3 3 4 6 7 6 4 4
21 19 19 21 20 18 20 24 26 24 19 14 11 10 9 9 9 8 6 5 4 4 6 9 13 13 11 10 9 6 4 1 0 0 1 2 2 3 5 6 6 5 4
18 19 20 21 21 19 18 21 24 24 21 17 13 12 11 9 8 9 8 6 3 3 5 7 9 10 10 10 8 6 4 2 0 0 0 1 2 3 4 4 4 4 4
16 20 21 22 23 20 18 17 18 20 20 17 14 12 11 10 8 8 9 7 5 3 5 7 7 8 9 8 5 5 6 4 1 0 0 0 1 2 2 3 3 3 3
17 19 22 24 25 23 21 17 15 16 17 15 12 12 12 10 9 8 8 8 7 5 5 7 8 8 8 6 3 5 8 6 2 0 0 0 0 1 1 1 2 3 3
22 21 22 25 25 24 22 19 15 15 16 14 12 12 12 12 10 9 8 8 8 7 6 6 9 10 8 5 4 6 7 6 3 1 0 0 0 0 0 0 1 1 2
25 25 24 25 24 23 23 20 17 17 16 14 14 14 13 12 11 10 8 8 7 7 6 6 8 10 8 4 4 6 5 4 3 1 0 0 0 0 0 0 0 0 1
30 29 27 25 23 21 22 22 20 18 16 15 15 15 14 12 12 12 10 8 7 6 6 6 6 8 7 5 5 4 3 2 2 1 0 0 0 0 0 0 0 0 0
33 32 30 27 24 21 20 21 20 18 17 14 13 14 14 12 12 12 10 9 7 6 6 6 6 7 7 6 4 2 1 1 1 0 0 0 0 0 0 0 0 0 0
33 33 31 27 23 20 17 16 17 18 17 14 12 11 11 11 11 10 9 8 8 7 6 6 6 7 8 7 5 2 1 0 0 0 0 0 1 1 1 0 0 0 0
31 30 29 25 22 18 14 11 13 16 17 16 14 11 9 9 9 7 6 5 5 5 5 5 6 6 7 7 5 4 2 1 0 0 0 0 1 2 2 1 0 0 0
30 29 27 23 20 16 10 7 7 11 15 16 16 13 9 8 8 7 4 3 3 3 2 3 4 5 5 6 6 5 4 3 2 1 0 0 1 1 1 1 0 0 0
32 30 26 22 19 14 7 3 3 6 10 13 12 10 9 8 6 5 4 4 4 3 1 1 2 3 2 3 5 5 5 4 2 1 1 1 0 0 0 0 0 0 0
32 29 25 21 17 11 5 1 1 3 6 9 8 7 8 7 4 2 4 6 7 4 1 0 1 1 0 1 2 3 3 3 1 1 2 1 0 0 0 0 0 0 0
30 27 23 20 16 9 3 0 0 2 5 8 8 6 6 6 4 1 2 6 7 5 2 1 0 0 0 0 0 1 2 2 1 1 2 1 0 0 0 0 0 0 0
Wind_Speed
2 2 1 1 0 1 1 0 1 1 1 1 1 1 1 0 2 3 4 9 9 8 8 9 9 9 8 8 8 8 8 8 9 9 10 11 11 10 10 9 9 9 8
2 2 1 1 0 1 1 1 1 1 1 1 1 1 1 1 2 3 4 6 8 8 8 9 9 9 9 8 8 8 8 8 8 8 9 10 11 10 10 10 9 9 8
2 1 1 1 1 1 1 1 1 1 1 2 2 2 1 1 2 2 3 3 5 7 8 9 9 9 9 9 9 8 7 7 7 7 8 8 9 10 10 9 9 9 8
2 1 1 1 1 1 1 1 0 1 1 0 1 2 2 1 2 2 2 3 3 4 6 9 8 8 8 8 8 8 7 7 6 6 6 6 7 7 8 8 8 8 8
1 1 1 1 1 1 1 1 1 0 1 0 1 2 3 3 3 3 3 3 3 3 3 7 9 8 8 8 8 8 7 7 7 6 6 6 6 7 8 8 8 7 7
1 0 1 1 1 0 0 1 1 0 1 1 1 1 2 2 2 2 3 3 3 4 4 4 5 6 8 8 8 8 8 7 7 6 6 6 6 7 8 9 9 8 8
2 1 0 0 0 0 0 0 0 1 1 0 0 0 1 2 2 2 2 2 3 3 3 3 3 3 3 6 7 8 8 8 7 7 7 6 6 6 7 8 8 8 8
2 1 0 0 0 0 1 0 0 1 1 0 0 1 0 0 0 1 2 3 3 3 3 3 3 3 3 3 4 7 8 7 7 7 6 6 6 6 6 6 7 7 7
1 1 1 0 0 0 1 1 1 1 1 1 0 1 0 0 0 0 1 1 2 2 2 2 2 2 2 2 3 5 7 6 6 6 5 5 5 5 5 6 5 5 5
2 1 1 0 0 0 0 1 0 1 1 1 1 1 0 0 1 0 1 1 2 2 1 1 1 1 2 2 3 4 6 6 6 5 5 5 4 4 4 5 5 5 5
2 1 2 1 1 0 0 1 1 1 1 1 1 1 1 1 1 1 0 0 0 1 1 1 1 1 1 1 2 4 4 5 5 5 4 4 4 4 4 5 5 5 4
2 2 2 1 1 0 0 0 0 0 1 2 2 2 1 1 1 1 1 1 1 0 1 1 1 2 1 1 3 5 5 4 5 5 5 4 4 4 4 4 5 4 4
2 2 2 2 1 1 1 1 1 1 1 2 2 2 2 2 2 1 1 1 0 0 0 1 1 2 1 1 2 6 6 5 4 5 5 4 4 4 4 4 4 4 4
2 3 2 2 2 1 1 1 1 1 1 2 2 2 2 2 2 1 0 0 1 0 1 0 1 1 1 1 2 6 4 6 5 4 4 4 4 4 4 4 4 4 3
2 3 3 2 2 1 1 1 1 1 1 1 1 1 1 1 2 1 0 0 1 1 1 1 0 1 1 1 4 3 3 5 5 5 4 4 4 4 4 4 3 3 3
1 2 2 2 2 1 1 1 1 0 0 1 1 1 1 2 1 1 1 1 0 1 1 1 0 1 1 1 3 2 2 6 7 6 6 5 5 4 4 4 4 3 3
2 2 2 2 2 2 2 1 2 1 1 1 1 1 1 2 2 2 1 1 1 0 0 1 0 0 0 0 1 2 2 3 4 7 7 6 6 6 5 5 5 4 4
2 2 2 2 3 2 2 2 2 1 1 1 1 1 1 1 1 1 1 1 1 1 1 1 1 1 1 1 2 2 3 3 3 7 9 8 8 7 7 6 6 5 5
2 2 2 2 2 2 2 2 2 2 1 1 1 1 1 1 1 1 1 2 2 2 0 1 1 1 1 1 1 2 2 1 3 5 9 9 9 9 8 8 7 6 6
3 2 2 2 2 2 2 2 2 2 2 2 1 1 1 1 0 1 1 2 2 2 1 1 1 1 1 1 1 2 2 2 2 3 4 6 9 10 9 8 7 7 7
3 2 2 2 3 3 2 2 3 3 3 3 2 2 1 1 1 1 1 1 2 1 1 1 1 2 1 1 1 2 2 2 2 2 2 3 4 5 6 7 8 8 8
2 2 3 3 3 3 1 1 2 2 2 3 2 2 2 2 2 1 2 2 2 2 2 2 2 2 2 2 2 2 2 2 2 2 2 3 3 4 4 4 8 10 9
3 3 2 2 2 1 2 1 2 3 3 3 3 3 3 2 2 2 3 4 3 4 4 3 3 3 3 2 2 3 3 3 3 2 2 3 2 3 4 5 10 11 11
2 2 2 2 2 2 2 3 3 4 4 3 3 3 3 2 2 1 2 2 2 2 3 3 3 4 4 2 3 4 4 4 3 2 2 3 2 3 3 3 9 11 11
2 2 2 2 2 2 2 3 3 3 3 4 3 3 3 2 1 1 2 2 3 3 3 3 4 4 4 4 3 2 2 2 3 2 1 2 2 2 2 2 5 10 10
3 3 2 2 2 2 3 3 3 3 3 2 1 1 2 1 1 1 2 2 3 3 3 3 3 3 3 4 4 3 3 3 3 2 1 1 1 1 2 2 2 4 5
Wind_Direction
109 98 85 91 120 136 138 165 213 184 191 215 223 182 208 187 129 124 131 153 162 167 173 179 182 187 195 198 197 201 203 205 204 205 207 206 208 210 214 218 218 220 222
104 104 101 112 203 161 161 209 227 205 193 199 189 169 187 175 127 140 143 152 158 164 174 184 185 188 195 196 196 200 204 207 209 209 210 209 211 213 217 217 218 221 221
109 120 148 179 188 199 196 208 255 251 215 211 176 164 153 149 130 142 154 160 158 165 173 181 187 190 195 199 200 203 203 206 211 215 213 215 217 219 218 219 219 221 224
121 141 163 169 186 201 215 184 201 272 271 237 166 163 150 159 163 166 159 160 163 165 175 181 183 186 190 198 200 199 197 199 198 200 205 209 212 212 214 218 219 220 222
140 156 145 183 184 198 211 200 144 212 275 253 187 165 164 179 185 182 172 165 164 166 168 172 181 188 194 201 200 201 198 199 200 201 203 205 210 215 213 214 214 216 218
128 167 169 217 195 163 89 41 39 337 320 305 284 146 168 180 179 182 183 172 161 167 173 168 175 188 199 205 204 202 201 200 200 200 202 206 214 218 217 215 216 219 224
141 160 338 77 254 128 171 192 73 318 284 225 313 236 206 191 186 178 175 170 153 161 158 163 171 176 181 200 206 204 207 204 200 202 205 211 219 221 213 212 217 219 223
165 171 185 228 286 106 72 18 354 296 278 183 250 275 242 149 247 176 154 158 158 155 158 174 179 165 170 173 189 197 201 204 204 205 207 212 218 220 212 213 215 217 222
160 255 147 204 284 167 128 187 230 256 288 298 278 292 311 76 340 292 148 120 129 138 153 165 156 152 163 155 162 187 194 199 202 207 210 212 210 211 209 209 210 212 213
179 195 147 163 288 34 73 269 105 274 283 299 305 290 234 139 184 188 343 99 128 136 150 164 130 132 132 133 137 155 175 186 197 207 213 213 208 203 199 199 207 210 214
174 174 156 176 188 155 71 356 20 353 336 314 303 295 280 245 220 178 215 303 69 113 137 129 126 122 116 125 139 150 168 185 188 193 195 204 206 204 199 200 208 210 212
167 177 163 167 175 201 137 253 310 306 317 312 308 305 297 293 270 193 196 211 186 216 153 138 135 132 130 137 162 152 164 177 187 188 187 191 195 195 198 202 206 207 208
173 173 172 163 179 204 207 195 236 296 284 292 293 303 309 314 314 291 188 237 257 202 101 120 119 123 141 137 144 146 159 166 174 182 183 189 194 193 193 202 205 208 205
166 161 169 165 182 210 222 224 235 243 282 282 289 308 310 313 315 321 179 174 281 332 37 357 107 137 129 144 140 153 156 164 169 169 179 187 193 190 191 199 203 201 199
184 159 171 170 179 189 225 234 247 273 310 284 290 299 296 307 312 322 23 202 205 265 299 237 177 182 154 151 147 168 160 165 171 173 181 185 190 194 190 190 189 186 187
177 169 178 177 175 179 209 211 254 265 326 302 294 330 313 308 316 340 350 316 319 189 243 279 226 172 162 151 153 175 178 172 180 183 189 190 192 193 190 190 192 190 190
178 175 177 180 175 181 196 198 237 221 237 278 285 307 314 331 340 337 348 339 341 77 216 294 9 71 16 96 160 205 198 185 185 193 198 197 199 200 199 201 204 205 205
191 173 176 190 201 197 191 212 242 231 232 260 275 288 294 314 340 343 344 331 325 303 171 239 254 231 249 216 202 221 221 207 202 199 198 199 201 202 203 207 209 212 213
185 180 181 203 220 210 205 221 234 246 233 239 243 252 269 287 333 343 323 324 318 318 281 225 249 242 247 238 223 249 235 223 233 206 199 203 203 203 203 205 209 214 213
189 186 193 212 225 209 220 233 232 243 243 254 267 257 256 250 278 288 286 309 309 307 290 249 247 253 245 250 230 245 257 241 244 240 209 202 202 205 204 202 208 212 212
196 188 200 215 227 221 223 228 234 228 227 234 242 254 249 113 52 312 288 296 293 284 282 274 265 279 274 295 268 265 264 261 253 243 232 214 196 203 204 206 209 208 204
192 199 212 221 232 242 207 199 232 244 242 242 239 238 219 191 200 241 267 275 257 247 261 276 275 279 276 282 285 278 280 280 270 227 217 239 201 202 202 198 198 198 199
199 206 219 226 229 220 186 204 248 249 244 235 232 238 254 241 195 230 249 249 256 255 236 244 265 276 275 267 264 273 267 266 264 260 250 251 220 214 208 204 192 194 198
202 208 207 221 220 218 210 223 247 244 247 241 233 230 231 245 234 260 273 265 259 264 251 233 238 257 265 260 251 253 259 263 261 255 225 247 239 229 222 192 191 195 200
204 209 196 199 200 202 200 221 241 255 247 248 236 226 214 214 168 270 261 266 273 272 274 267 258 254 249 256 259 273 272 270 276 267 237 237 251 252 231 212 202 202 204
202 204 198 193 199 177 178 199 220 264 263 261 242 215 150 141 145 291 274 278 278 283 293 283 269 263 248 245 236 226 250 271 281 274 256 249 262 269 266 214 190 189 204